This is the latest recevied weather packets stored in our database for station/object K0SNA. If no packets are shown the sender has not sent any weather packets the latest 1 day(s).
| Time | Temp. | Humidity | Pressure | Rain* | Wind** | Luminosity | Snow |
|---|---|---|---|---|---|---|---|
| 1778027330 | 8.89° C | 42% | 1011.6 hPa | 0 mm | - | 19 W/m² | - |
| 1778027026 | 8.89° C | 41% | 1011.3 hPa | 0 mm | - | 23 W/m² | - |
| 1778026722 | 8.89° C | 41% | 1011.2 hPa | 0 mm | - | 30 W/m² | - |
| 1778026419 | 8.89° C | 40% | 1011.1 hPa | 0 mm | - | 22 W/m² | - |
| 1778025208 | 9.44° C | 40% | 1010.9 hPa | 0 mm | - | 32 W/m² | - |
| 1778024905 | 9.44° C | 40% | 1011 hPa | 0 mm | - | 39 W/m² | - |
| 1778023392 | 9.44° C | 40% | 1011 hPa | 0 mm | - | 63 W/m² | - |
| 1778022787 | 10° C | 39% | 1011 hPa | 0 mm | - | 99 W/m² | - |
| 1778020968 | 9.44° C | 41% | 1010.8 hPa | 0 mm | - | 148 W/m² | - |
| 1778018543 | 9.44° C | 40% | 1011 hPa | 0 mm | - | 196 W/m² | - |
| 1778017635 | 9.44° C | 39% | 1011.1 hPa | 0 mm | - | 151 W/m² | - |
| 1778016727 | 10° C | 39% | 1011.1 hPa | 0 mm | - | 153 W/m² | - |
| 1778016120 | 10° C | 40% | 1011 hPa | 0 mm | - | 208 W/m² | - |
| 1778015817 | 10° C | 41% | 1011.2 hPa | 0 mm | - | 119 W/m² | - |
| 1778015211 | 10° C | 40% | 1011.2 hPa | 0 mm | - | 172 W/m² | - |
| 1778014605 | 10° C | 40% | 1011.3 hPa | 0 mm | - | 270 W/m² | - |
| 1778012483 | 9.44° C | 40% | 1011.4 hPa | 0 mm | - | 223 W/m² | - |
| 1778011272 | 9.44° C | 41% | 1011.3 hPa | 0 mm | - | 237 W/m² | - |
| 1778010666 | 9.44° C | 40% | 1011.2 hPa | 0 mm | - | 143 W/m² | - |
| 1778010058 | 10° C | 39% | 1011.3 hPa | 0 mm | - | 464 W/m² | - |
| 1778007938 | 10.56° C | 39% | 1011.3 hPa | 0 mm | - | 845 W/m² | - |
* Rain latest hour (hover to see other rain measurements)
** Current wind speed in m/s (hover to see current wind gust speed)